Location: Bosmont
(49.7318°N, 3.8587°E)
Time: 13:52:37
(UTC+00:00)

METEOR 2-8 DEB - Pass Details

Date: 27 February 2024
Orbit: 803 x 837 km, 82.5° (Epoch: 10 April)

Event Time Altitude Azimuth Distance (km) Brightness Sun altitude
Exits shadow 02:08:06 11° 353° (N) 2,389 ? -40.7°
Drops below altitude 10° 02:08:16 10° 354° (N) 2,445 ? -40.7°
Sets 02:10:57 0° 5° (N) 3,388 ? -40.4°
